[[{"header":{"parameterUnit":"m.s-1","parameterCategory":1,"la1":30.2991,"la2":30.254,"lo1":-89.0895,"lo2":-89.0444,"dy":0.0017,"dx":0.0017,"nx":28,"ny":28,"refTime":"2026-03-03T09:00:00:Z","depth":0,"parameterNumber":2,"parameterNumberName":"U-component_of_WINDS"},"data":[0,0,0,0,0,0,0,0,0,0,0,0,0,0,0,0,0,0,0,0,0,0,0,0,0,0,0,0,0,0,0,0,0,0,0,0,0,0,0,0,0,0,0,0,0,0,0,0,0,0,0,0,0,0,0,0,0,0,-1.8784,-1.8785,0,-1.8814,-1.8815,-1.8815,-1.8783,-1.8782,-1.878,-1.8779,-1.8818,-1.882,-1.8822,0,0,0,0,0,0,0,0,0,0,0,0,0,-1.8707,-1.8709,-1.8784,-1.8785,-1.8785,-1.8814,-1.8815,-1.8815,-1.8783,-1.8782,-1.878,-1.8779,-1.8817,-1.882,-1.8823,0,0,0,0,0,0,0,0,0,0,0,0,0,-1.874,-1.8709,-1.8784,-1.8772,-1.8772,-1.8814,-1.8815,-1.8815,-1.8783,-1.8782,-1.878,-1.8778,-1.8816,-1.882,-1.8823,-1.8881,0,0,-1.8833,-1.8834,0,0,0,0,0,0,0,0,-1.8738,-1.8742,-1.8774,-1.8773,-1.8773,-1.8793,-1.8802,-1.8838,-1.8784,-1.8779,-1.8779,-1.8777,-1.8812,-1.8815,-1.8825,-1.8883,-1.8884,-1.8833,-1.8835,-1.8837,-1.8838,0,0,0,0,0,0,0,-1.8736,-1.8741,-1.8796,-1.8774,-1.8774,-1.8768,-1.8771,-1.8808,-1.8806,-1.878,-1.8777,-1.8781,-1.8811,-1.8822,-1.8826,-1.8885,-1.8833,-1.8836,-1.8838,-1.8839,-1.8993,-1.8995,0,0,0,0,0,0,-1.8734,-1.8739,-1.8795,-1.8797,-1.875,-1.8771,-1.8774,-1.8788,-1.8805,-1.8806,-1.8782,-1.8779,-1.8817,-1.8822,-1.8827,-1.8897,-1.8837,-1.884,-1.8842,-1.8991,-1.8993,-1.8996,0,0,0,0,0,0,-1.8732,-1.8739,-1.8794,-1.8768,-1.8774,-1.8774,-1.8791,-1.879,-1.8801,-1.8807,-1.8808,-1.8794,-1.8816,-1.8823,-1.8867,-1.8897,-1.8841,-1.8844,-1.8988,-1.8992,-1.8995,-1.9036,0,0,0,0,0,0,-1.873,-1.8738,-1.8759,-1.8768,-1.8776,-1.8832,-1.8793,-1.8792,-1.8806,-1.8802,-1.8818,-1.8819,-1.8815,-1.8863,-1.8871,-1.8901,-1.8847,-1.8986,-1.899,-1.8994,-1.9032,-1.904,-1.9047,0,0,0,0,0,-1.8727,-1.8771,-1.876,-1.8767,-1.8801,-1.8833,-1.8838,-1.883,-1.8808,-1.883,-1.8834,-1.8818,-1.8893,-1.8868,-1.8876,-1.8908,-1.8984,-1.8989,-1.8993,-1.9028,-1.9038,-1.9047,0,0,0,0,0,0,-1.8767,-1.8772,-1.876,-1.8807,-1.882,-1.8828,-1.8855,-1.8841,-1.8863,-1.8858,-1.8851,-1.8855,-1.8902,-1.891,-1.8881,-1.8966,-1.8935,-1.8942,-1.8959,-1.8968,-1.8976,-1.8973,-1.885,0,0,0,0,0,-1.8781,-1.8805,-1.8809,-1.885,-1.8857,-1.8855,-1.8869,-1.8862,-1.8876,-1.8882,-1.8889,-1.8906,-1.8933,-1.8951,-1.8976,-1.9033,-1.9037,-1.9059,-1.9067,-1.9073,-1.9079,-1.911,-1.9121,-1.9011,-1.9011,-1.9011,0,0,-1.8811,-1.8816,-1.8832,-1.8858,-1.8867,-1.8894,-1.886,-1.889,-1.8911,-1.8887,-1.8929,-1.8936,-1.8954,-1.9005,-1.9028,-1.9013,-1.911,-1.9079,-1.9084,-1.9087,-1.9116,-1.9127,-1.9136,-1.9014,-1.9014,-1.9013,0,0,-1.8879,-1.8885,-1.892,-1.8929,-1.8942,-1.8941,-1.8949,-1.8959,-1.8962,-1.9003,-1.8987,-1.9013,-1.9059,-1.9073,-1.9086,-1.916,-1.9147,-1.9168,-1.9208,-1.9239,-1.9248,-1.9255,-1.9282,-1.9292,-1.9174,-1.9175,-1.9175,0,-1.8915,-1.8952,-1.894,-1.8971,-1.8984,-1.8961,-1.8998,-1.9009,-1.9031,-1.9042,-1.9024,-1.9082,-1.9093,-1.9147,-1.9164,-1.9176,-1.9187,-1.9166,-1.9247,-1.9254,-1.9261,-1.9287,-1.9297,-1.9177,-1.9177,-1.9177,-1.9176,0,-1.8996,-1.9023,-1.905,-1.9069,-1.9085,-1.9119,-1.9114,-1.9133,-1.9124,-1.9125,-1.9169,-1.9181,-1.9208,-1.9221,-1.9214,-1.9275,-1.9265,-1.9247,-1.9216,-1.9274,-1.9298,-1.9308,-1.9181,-1.918,-1.9179,-1.9178,0,0,-1.909,-1.9101,-1.9112,-1.912,-1.9133,-1.9155,-1.9189,-1.9213,-1.9229,-1.9246,-1.9275,-1.9315,-1.9298,-1.9313,-1.9308,-1.9335,-1.9394,-1.9314,-1.9315,-1.9329,-1.9462,-1.9475,-1.9487,-1.9385,-1.9387,-1.9388,-1.9461,0,-1.9159,-1.9214,-1.9204,-1.9259,-1.9285,-1.9264,-1.9294,-1.9307,-1.9309,-1.9333,-1.9337,-1.9365,-1.9341,-1.935,-1.9375,-1.9381,-1.942,-1.9376,-1.9415,-1.9416,-1.941,-1.9499,-1.9513,-1.9581,-1.947,-1.9472,-1.9473,0,-1.9245,-1.9262,-1.9319,-1.9328,-1.9338,-1.9364,-1.9386,-1.9408,-1.9424,-1.9424,-1.944,-1.943,-1.9467,-1.9435,-1.9487,-1.9456,-1.9472,-1.9478,-1.948,-1.9484,-1.9448,-1.9506,-1.9602,-1.9613,-1.9487,-1.9486,-1.9485,0,-1.9309,-1.9346,-1.9384,-1.9392,-1.9404,-1.9423,-1.9429,-1.9442,-1.9457,-1.9477,-1.9488,-1.9513,-1.9527,-1.9548,-1.9546,-1.9523,-1.96,-1.9567,-1.9602,-1.9602,-1.9619,-1.9618,-1.972,-1.9629,-1.9629,-1.9629,-1.9629,0,-1.9386,-1.9422,-1.9412,-1.9436,-1.9477,-1.9467,-1.9508,-1.9512,-1.9523,-1.955,-1.9535,-1.956,-1.9556,-1.9583,-1.9582,-1.9626,-1.9632,-1.9635,-1.9634,-1.9636,-1.9636,-1.9647,-1.9642,-1.9632,-1.9631,-1.963,-1.963,0,-1.9463,-1.9458,-1.9499,-1.9506,-1.9509,-1.9538,-1.9546,-1.957,-1.957,-1.9604,-1.9611,-1.9614,-1.9644,-1.9644,-1.968,-1.9679,-1.9733,-1.9727,-1.9727,-1.9726,-1.9761,-1.9758,-1.9873,-1.9889,-1.9787,-1.9788,-1.9789,0,-1.9513,-1.954,-1.9549,-1.9564,-1.957,-1.9595,-1.961,-1.9602,-1.9619,-1.9638,-1.966,-1.9688,-1.9711,-1.9761,-1.9768,-1.9795,-1.979,-1.9829,-1.9795,-1.9796,-1.9792,-1.979,-1.9793,-1.9836,-1.9837,-1.9838,-1.9839,0,-1.9602,-1.9598,-1.9618,-1.9638,-1.9656,-1.9672,-1.9686,-1.9701,-1.9695,-1.9715,-1.9744,-1.9761,-1.9796,-1.9825,-1.9852,-1.9861,-1.985,-1.9849,-1.9859,-1.9861,-1.986,-1.9862,-1.9745,-1.9847,-1.9846,-1.9845,-1.9845,-1.9845,-1.9668,-1.969,-1.97,-1.9723,-1.9733,-1.9747,-1.9769,-1.9772,-1.9795,-1.9821,-1.9816,-1.9849,-1.9865,-1.9899,-1.9911,-1.9939,-1.9926,-1.994,-1.9944,-1.9947,-1.9951,-1.9855,-1.9944,-1.9944,-1.9944,-1.9944,-1.9943,0,-1.9756,-1.9761,-1.9782,-1.9802,-1.9821,-1.9805,-1.9821,-1.9839,-1.9867,-1.9882,-1.9903,-1.9938,-1.9966,-1.9975,-2.0003,-2.0023,-2.0019,-2.0031,-2.003,-2.0032,-1.9961,-1.995,-2.0034,-2.0034,-2.0034,-2.0034,-2.0034,-2.0034,-1.9804,-1.9842,-1.9839,-1.9882,-1.9888,-1.9917,-1.9928,-1.9942,-1.9953,-1.9991,-2.0013,-2.0017,-2.003,-2.0059,-2.0085,-2.0087,-2.0099,-2.0113,-2.0113,-2.0047,-2.0037,-2.0029,-2.0018,-2.0116,-2.0116,-2.0182,-2.0183,-2.0184]},{"header":{"parameterUnit":"m.s-1","parameterCategory":1,"la1":30.2991,"la2":30.254,"lo1":-89.0895,"lo2":-89.0444,"dy":0.0017,"dx":0.0017,"nx":28,"ny":28,"refTime":"2026-03-03T09:00:00:Z","depth":0,"parameterNumber":3,"parameterNumberName":"V-component_of_WINDS"},"data":[0,0,0,0,0,0,0,0,0,0,0,0,0,0,0,0,0,0,0,0,0,0,0,0,0,0,0,0,0,0,0,0,0,0,0,0,0,0,0,0,0,0,0,0,0,0,0,0,0,0,0,0,0,0,0,0,0,0,2.3524,2.3523,0,2.3457,2.3456,2.3455,2.3409,2.3408,2.3408,2.3408,2.3339,2.3338,2.3336,0,0,0,0,0,0,0,0,0,0,0,0,0,2.3613,2.3612,2.3524,2.3523,2.3523,2.3457,2.3456,2.3455,2.3409,2.3408,2.3408,2.3408,2.334,2.3338,2.3336,0,0,0,0,0,0,0,0,0,0,0,0,0,2.3563,2.3612,2.3524,2.3492,2.3488,2.3457,2.3456,2.3455,2.3409,2.3408,2.3408,2.3407,2.334,2.3338,2.3336,2.3333,0,0,2.3329,2.3328,0,0,0,0,0,0,0,0,2.3566,2.356,2.3497,2.3494,2.349,2.3441,2.3462,2.3414,2.3409,2.3439,2.3408,2.3407,2.3374,2.3369,2.3357,2.3329,2.3327,2.3329,2.3328,2.3327,2.3326,0,0,0,0,0,0,0,2.357,2.3563,2.3498,2.3496,2.3492,2.348,2.3473,2.3453,2.341,2.3436,2.3433,2.3425,2.3371,2.3359,2.3355,2.3326,2.3329,2.3327,2.3326,2.3325,2.3292,2.3293,0,0,0,0,0,0,2.3578,2.3566,2.35,2.3495,2.3527,2.3479,2.3471,2.3457,2.341,2.3402,2.3426,2.3423,2.3363,2.3358,2.3353,2.3346,2.3327,2.3325,2.3323,2.3292,2.3292,2.3293,0,0,0,0,0,0,2.358,2.3573,2.3502,2.353,2.352,2.3478,2.3463,2.3456,2.3444,2.3402,2.3394,2.3421,2.3363,2.3356,2.3338,2.3343,2.3324,2.3322,2.3291,2.3292,2.3293,2.3332,0,0,0,0,0,0,2.3583,2.3574,2.3572,2.353,2.3519,2.3489,2.3463,2.3455,2.344,2.3436,2.3396,2.3389,2.3362,2.3342,2.3336,2.3339,2.332,2.3291,2.3292,2.3292,2.3331,2.3334,2.3338,0,0,0,0,0,2.3587,2.3586,2.3572,2.3564,2.3515,2.3489,2.3483,2.3451,2.344,2.3438,2.3412,2.339,2.3343,2.334,2.3333,2.3336,2.329,2.3291,2.3292,2.3329,2.3334,2.3338,0,0,0,0,0,0,2.363,2.358,2.3564,2.355,2.3524,2.3481,2.3478,2.3457,2.3434,2.3432,2.3394,2.3386,2.3372,2.3352,2.335,2.3331,2.3314,2.3314,2.3344,2.3348,2.3352,2.3357,2.3318,0,0,0,0,0,2.3638,2.362,2.3578,2.3569,2.3557,2.352,2.3507,2.3485,2.3457,2.3446,2.3418,2.3392,2.3372,2.3359,2.3337,2.3327,2.3318,2.3326,2.333,2.3333,2.3333,2.3327,2.333,2.3297,2.3296,2.3296,0,0,2.3654,2.3624,2.3616,2.3577,2.3555,2.3538,2.3511,2.3494,2.3482,2.3444,2.3426,2.3404,2.3373,2.3359,2.3351,2.3342,2.334,2.3334,2.3337,2.3336,2.3328,2.3332,2.3335,2.3297,2.3297,2.3297,0,0,2.3675,2.365,2.3641,2.3619,2.3585,2.356,2.3558,2.3519,2.3503,2.3484,2.3455,2.344,2.3405,2.3384,2.3368,2.3382,2.3361,2.3376,2.3395,2.3389,2.3392,2.3394,2.3399,2.3402,2.3376,2.3376,2.3376,0,2.3699,2.3673,2.3639,2.3624,2.3608,2.3573,2.3563,2.3543,2.3505,2.3495,2.3485,2.344,2.3416,2.3397,2.3401,2.3389,2.3386,2.338,2.3394,2.3396,2.3398,2.3402,2.3404,2.3378,2.3378,2.3378,2.3378,0,2.3704,2.3687,2.3683,2.3646,2.363,2.3618,2.3583,2.357,2.355,2.3526,2.3507,2.3478,2.345,2.3444,2.3423,2.3422,2.3417,2.3401,2.3384,2.3403,2.3407,2.3409,2.3381,2.338,2.338,2.3379,0,0,2.3751,2.3696,2.3695,2.3679,2.3639,2.3624,2.3611,2.3583,2.3574,2.3548,2.3536,2.3507,2.3492,2.3475,2.3452,2.3447,2.346,2.3432,2.343,2.3439,2.3458,2.347,2.3473,2.3446,2.3446,2.3447,2.346,0,2.3767,2.374,2.371,2.3694,2.3677,2.3643,2.3632,2.3606,2.3584,2.3566,2.3542,2.3522,2.3503,2.3493,2.3486,2.346,2.3464,2.3459,2.3435,2.3435,2.3445,2.3475,2.3488,2.3503,2.3462,2.3462,2.3462,0,2.3781,2.3758,2.374,2.3702,2.3694,2.3684,2.3657,2.364,2.3611,2.3595,2.3576,2.3551,2.3536,2.352,2.3498,2.3495,2.3484,2.347,2.347,2.3467,2.345,2.3474,2.3507,2.3509,2.3464,2.3464,2.3464,0,2.3818,2.3782,2.3767,2.3753,2.3708,2.3702,2.3683,2.3653,2.3638,2.3615,2.3605,2.358,2.3566,2.3547,2.3517,2.3508,2.3499,2.348,2.3486,2.3487,2.3486,2.3486,2.3518,2.3477,2.3477,2.3477,2.3477,0,2.3839,2.383,2.3783,2.3774,2.3763,2.3727,2.3717,2.3695,2.3669,2.3655,2.3624,2.3612,2.3572,2.3555,2.3531,2.3518,2.3511,2.3499,2.3493,2.3502,2.3504,2.3494,2.3493,2.3478,2.3478,2.3478,2.3478,0,2.3879,2.3847,2.3828,2.3787,2.3777,2.377,2.3735,2.3725,2.3701,2.3684,2.3678,2.364,2.3618,2.3586,2.3555,2.3539,2.3529,2.3519,2.3539,2.3536,2.3543,2.3544,2.3571,2.3573,2.3531,2.3531,2.3531,0,2.3895,2.3888,2.3845,2.3834,2.3816,2.3798,2.3783,2.3748,2.3733,2.3699,2.3694,2.367,2.3649,2.3617,2.3587,2.3563,2.3552,2.3563,2.3548,2.3558,2.3553,2.3554,2.3554,2.3567,2.3568,2.3568,2.3569,0,2.3928,2.3912,2.3892,2.3866,2.3849,2.3827,2.3803,2.3795,2.3755,2.3741,2.3718,2.3702,2.3671,2.3648,2.362,2.36,2.3578,2.3574,2.3574,2.3584,2.3596,2.359,2.355,2.3573,2.3573,2.3573,2.3572,2.3572,2.3956,2.3948,2.3917,2.3896,2.3874,2.3853,2.3842,2.3816,2.3796,2.3768,2.3748,2.3727,2.3698,2.3658,2.364,2.3623,2.3614,2.3614,2.3614,2.3615,2.3618,2.3598,2.3618,2.3618,2.3617,2.3617,2.3617,0,2.3988,2.3966,2.3947,2.3915,2.3898,2.3877,2.385,2.3838,2.382,2.3794,2.3774,2.3748,2.3726,2.3694,2.3669,2.3662,2.3651,2.3657,2.3658,2.3654,2.3628,2.3631,2.3666,2.3666,2.3666,2.3666,2.3666,2.3666,2.4003,2.3988,2.3968,2.3943,2.3921,2.39,2.3886,2.3866,2.3846,2.3819,2.38,2.3779,2.375,2.3723,2.3702,2.3693,2.3686,2.3695,2.3683,2.366,2.3655,2.3651,2.3654,2.3693,2.3693,2.371,2.3711,2.3711]}]]